Wind_Speed
26 26 27 27 24 24 26 25 26 26 28 28 26 25 25 24 26 25 24 24 24 23 23 28 31 31 18 18 23 25 25 29 30 28 25 14 2 1 11 22 28 23 27 23 21 23 20 19 16
27 27 26 29 28 23 24 23 24 24 26 28 28 27 25 26 25 24 23 23 22 22 23 26 28 24 15 18 22 21 26 29 27 29 25 15 3 4 6 15 22 27 22 23 22 21 21 19 18
28 32 32 35 33 31 30 26 24 23 23 22 20 20 23 27 23 20 21 21 20 21 22 24 27 19 13 17 19 20 23 26 27 25 25 15 6 5 5 11 18 25 24 27 25 25 24 19 17
34 35 37 35 35 32 34 29 27 25 22 21 24 25 25 25 22 23 25 25 24 22 22 20 27 11 11 16 17 17 23 26 29 26 28 20 9 6 3 13 18 17 22 23 24 22 22 22 18
42 37 38 37 35 34 34 33 34 31 26 24 24 24 26 25 26 29 34 33 26 24 19 19 24 8 11 13 12 15 25 24 27 29 31 29 13 7 8 20 13 17 19 21 29 20 21 19 16
45 44 43 41 38 36 35 35 32 30 27 24 24 27 27 31 32 34 31 26 22 21 18 19 20 6 7 12 6 16 24 24 25 30 29 32 25 9 11 13 10 11 18 23 27 18 20 21 19
49 48 47 45 40 40 34 34 32 29 26 24 23 27 30 31 28 27 28 26 24 22 22 19 17 4 2 7 5 12 20 19 23 28 29 29 29 18 7 9 10 13 14 16 21 20 15 19 22
51 51 51 45 43 41 35 33 33 32 27 24 26 27 30 37 32 30 27 24 24 23 22 20 17 4 1 4 2 7 11 16 18 24 27 28 25 26 16 6 9 10 15 15 21 21 16 20 26
54 52 51 45 41 35 34 34 33 32 29 28 26 28 30 30 28 27 27 25 21 22 20 17 12 8 5 2 1 7 9 12 14 20 23 25 26 25 25 15 8 8 9 10 15 19 21 17 24
51 52 49 45 36 32 33 33 33 32 30 29 28 29 29 29 29 28 27 25 19 17 15 14 10 11 8 6 2 4 7 10 11 16 21 24 24 23 24 22 19 5 6 10 16 16 18 17 21
46 44 41 38 35 31 32 33 34 33 31 31 31 31 33 32 30 29 28 24 13 15 13 12 6 11 11 9 5 1 1 8 10 14 17 25 26 21 20 18 18 14 11 4 13 16 19 19 20
39 36 34 35 36 33 32 33 35 34 34 32 32 32 33 32 30 27 25 19 18 20 11 8 4 10 8 8 8 4 4 6 13 17 16 20 28 22 19 13 14 14 16 10 9 17 18 20 20
41 36 37 34 34 33 33 33 34 34 32 34 34 32 31 31 28 25 23 22 14 8 7 6 6 8 10 9 8 6 3 5 4 8 9 18 19 17 18 14 12 13 15 15 14 8 18 19 17
41 39 38 34 34 35 33 32 32 32 32 35 33 30 30 29 28 24 21 19 9 5 5 18 13 15 15 13 12 8 5 5 4 1 8 11 16 14 11 12 11 11 12 11 16 14 7 16 22
42 39 35 32 33 35 35 33 31 31 34 31 29 28 28 29 27 24 20 14 8 15 21 4 17 26 28 18 17 19 14 8 5 3 12 8 7 8 7 7 10 11 14 17 17 17 15 7 9
38 38 35 33 31 35 36 35 33 33 31 28 27 29 28 28 24 21 14 5 12 24 28 26 24 25 31 26 27 24 20 13 10 3 3 2 4 5 5 5 6 11 13 18 24 21 17 16 12
35 36 33 30 29 31 33 32 30 31 28 28 26 29 28 26 24 21 14 5 11 27 32 32 17 15 22 41 30 28 25 14 15 11 4 1 2 7 9 9 6 16 21 25 26 27 26 18 19
32 31 26 21 22 19 24 25 26 24 27 24 26 24 23 25 22 22 17 11 10 21 33 32 16 13 16 24 34 30 29 21 20 15 15 8 5 12 12 6 13 19 28 28 33 30 32 23 23
27 22 17 20 18 13 21 23 24 25 26 23 22 22 20 23 22 20 16 14 17 16 33 41 29 9 21 16 20 25 28 26 24 13 10 12 18 15 16 13 16 22 30 33 37 36 35 29 25
22 17 18 18 19 14 17 23 25 26 25 23 19 20 18 22 22 18 17 16 22 21 27 42 46 27 28 28 18 21 21 28 26 24 14 16 21 21 20 20 24 31 36 36 29 28 28 24 23
20 18 20 23 20 19 17 19 20 23 24 22 20 19 17 15 16 19 16 16 20 20 22 33 41 40 31 27 30 23 29 27 27 26 28 22 22 23 27 25 27 30 28 24 30 27 26 19 19
26 16 23 25 21 21 19 20 19 18 23 21 21 22 15 13 14 15 15 12 12 15 17 19 31 38 32 24 25 24 26 30 29 23 24 26 27 24 26 25 28 20 26 29 27 29 22 16 15
26 22 24 28 21 22 22 21 22 20 22 20 22 25 16 13 12 13 12 10 9 10 12 16 21 25 27 25 25 24 26 23 22 21 25 25 23 25 25 24 21 23 26 24 25 22 15 14 14
30 32 29 27 20 24 23 22 22 22 23 22 22 22 15 12 7 5 6 6 8 15 15 14 19 19 23 34 28 27 25 26 26 25 29 28 23 19 23 28 27 21 26 25 23 20 16 12 13
29 35 33 30 27 28 27 26 22 22 23 26 25 19 14 4 7 10 8 3 7 14 14 10 13 17 21 38 32 30 28 29 26 27 25 23 20 24 25 25 17 21 24 23 25 19 16 15 15
31 33 30 31 33 33 32 27 26 24 23 25 26 23 16 10 15 10 3 11 14 18 15 12 6 12 19 22 40 32 32 32 31 31 27 26 26 28 24 13 17 20 22 26 29 23 14 12 14
37 33 35 31 35 32 32 31 31 28 25 24 27 22 15 14 23 20 12 16 16 18 13 10 14 9 8 17 42 39 32 27 29 29 29 26 26 29 16 13 18 20 23 26 28 21 12 9 10
37 37 36 33 33 33 35 35 32 29 26 26 27 27 23 17 30 29 25 15 14 12 10 18 15 18 11 5 5 12 21 37 35 28 27 27 23 21 14 13 19 24 23 26 26 18 13 10 10
40 38 36 36 36 38 42 39 33 28 26 26 26 30 25 20 26 26 28 10 12 12 22 18 18 11 10 3 4 8 8 13 18 24 26 24 17 14 10 15 20 23 25 25 21 16 14 11 12
42 40 40 39 41 41 40 42 34 26 25 25 24 27 27 26 19 23 23 9 7 8 26 19 14 7 4 8 13 10 8 9 9 15 15 16 12 14 14 17 20 22 24 24 17 15 12 11 13
Wind_Direction
342 347 342 333 330 327 319 315 311 307 305 304 303 302 303 310 309 309 309 312 313 316 317 320 321 332 343 357 353 345 342 346 349 354 352 343 352 124 188 187 194 195 191 190 198 203 199 184 212
339 332 338 340 343 329 327 314 309 308 307 309 306 304 302 308 308 311 315 313 313 313 317 324 328 342 351 5 5 354 350 356 4 2 1 343 282 127 129 187 180 192 185 185 185 188 197 200 194
332 335 338 341 339 335 328 325 309 310 303 301 304 302 303 302 298 309 317 312 307 312 322 328 333 344 355 11 2 355 9 13 12 13 16 357 326 187 149 178 170 183 176 183 181 186 200 204 209
328 330 336 334 340 330 329 325 319 315 310 309 306 301 301 292 292 303 317 316 313 316 314 328 341 346 5 15 2 24 19 16 19 20 28 24 8 125 86 160 160 175 177 179 183 183 194 203 212
325 324 328 330 332 330 324 322 320 318 321 313 309 306 311 302 294 296 307 311 307 307 309 342 345 325 3 10 8 32 20 13 22 27 33 37 37 61 110 141 153 173 180 175 177 186 196 197 210
322 327 324 325 330 327 321 319 314 312 315 314 313 313 316 309 305 304 310 303 298 301 307 338 340 307 360 9 65 25 24 22 31 39 36 43 43 58 120 137 134 159 177 175 173 187 198 200 201
320 320 325 326 324 324 317 313 309 311 311 316 305 305 309 316 315 311 313 306 301 300 300 316 330 287 58 17 103 21 26 28 39 40 39 44 46 53 112 142 150 150 168 181 184 187 186 207 198
315 317 320 322 324 320 316 313 308 311 309 317 315 306 307 307 303 307 313 304 297 294 301 302 312 234 154 51 121 36 32 32 38 40 40 43 49 51 66 160 181 177 181 190 197 198 207 195 208
312 313 315 319 323 314 312 309 307 306 308 313 312 311 313 310 314 317 319 316 305 301 299 296 287 218 198 180 106 85 49 27 40 45 40 39 44 52 57 68 157 192 223 228 212 217 214 214 209
307 308 309 310 317 307 304 303 302 303 310 309 315 312 309 315 311 313 320 315 311 318 304 290 279 206 196 186 166 123 75 51 53 37 36 43 43 42 50 59 76 113 199 223 230 232 221 225 213
302 303 306 304 306 301 300 302 303 306 306 311 311 312 316 311 313 315 318 309 286 319 305 296 268 212 203 212 223 252 26 42 49 32 33 34 33 38 36 48 46 60 58 257 231 233 232 228 221
296 296 294 293 298 297 295 297 299 302 305 309 308 313 313 312 314 317 313 302 281 305 303 315 289 229 238 252 251 249 322 6 24 18 34 17 19 30 29 44 42 37 35 44 24 235 236 231 232
290 286 288 287 289 288 290 294 295 299 304 308 309 312 314 313 314 317 308 296 295 289 329 21 350 279 272 292 273 298 306 328 30 346 355 359 356 14 18 48 50 50 30 22 24 12 234 238 236
284 284 283 282 283 287 286 288 292 296 297 301 307 313 311 309 312 316 304 296 292 167 132 66 10 342 280 278 257 253 259 245 252 284 320 337 339 14 26 52 47 38 25 360 8 18 15 241 233
282 281 274 273 276 278 282 285 287 286 292 300 309 307 307 306 319 317 309 292 214 171 160 278 160 222 259 237 227 220 227 237 283 342 6 342 18 14 49 37 8 16 19 17 9 357 351 324 268
275 273 269 265 267 276 277 280 282 287 291 298 305 302 303 313 320 312 316 312 184 175 168 180 179 219 231 242 236 229 236 215 232 266 207 320 354 340 355 11 353 330 5 4 358 346 341 329 296
270 266 269 272 276 276 278 280 283 287 285 293 298 303 314 313 317 315 319 321 186 186 175 184 210 244 236 227 239 233 232 219 235 240 319 163 63 1 349 339 350 353 349 345 337 341 334 307 277
264 267 272 272 272 284 293 289 284 278 283 291 296 309 311 309 319 314 318 315 268 207 191 194 215 254 271 232 235 237 245 229 234 244 269 247 184 314 300 341 344 339 338 330 330 324 320 313 277
259 262 259 256 261 276 297 291 283 284 287 288 303 309 315 311 312 306 306 301 287 245 218 214 212 213 261 250 247 237 240 232 228 243 234 244 261 278 279 279 309 312 321 321 322 315 308 311 278
246 239 265 259 270 268 283 282 284 289 285 292 304 305 317 304 305 296 289 301 290 270 236 230 230 224 260 261 260 238 224 234 243 240 256 248 257 255 271 268 298 308 315 313 316 316 314 310 287
239 246 268 257 262 285 281 272 279 285 280 295 301 304 308 298 296 293 298 294 278 270 258 239 236 241 253 259 258 257 229 234 243 253 250 261 251 259 277 282 296 300 312 314 317 320 329 310 288
243 263 257 257 265 284 281 268 261 273 276 290 294 293 294 293 300 296 291 287 274 269 264 260 237 237 240 247 248 244 246 242 245 256 241 232 245 266 272 285 302 303 312 309 316 329 330 313 294
266 259 257 254 265 277 286 289 271 264 267 274 287 286 293 298 296 275 286 287 288 296 277 265 254 242 235 233 221 232 243 247 231 225 233 238 258 272 285 291 295 302 311 322 324 336 323 309 292
260 260 259 261 271 275 280 288 276 273 273 277 274 283 304 315 285 263 277 282 327 334 309 280 263 252 243 211 211 219 230 225 226 223 233 245 255 275 286 277 286 313 313 327 338 330 319 308 296
257 266 261 257 264 270 278 284 277 270 275 279 285 282 285 275 207 162 112 10 344 342 322 286 265 255 232 205 211 218 228 229 226 230 240 241 259 273 284 286 286 318 327 340 342 323 313 301 299
252 257 247 254 264 265 275 284 293 271 264 270 278 276 278 264 190 189 335 1 4 354 349 341 291 243 229 218 205 218 225 226 222 224 234 232 254 266 291 294 313 323 325 331 338 331 310 310 320
249 245 249 258 270 270 274 281 289 271 266 271 273 273 263 231 208 227 256 353 341 8 15 80 85 101 200 220 204 209 217 221 226 234 244 250 253 271 274 281 312 324 326 339 337 331 318 324 317
241 244 254 262 265 266 274 279 283 272 268 273 276 277 271 259 222 236 265 301 328 350 116 96 90 80 76 103 180 212 233 232 233 233 245 256 261 260 264 286 317 329 332 342 333 326 330 320 315
239 253 254 263 263 272 276 280 277 268 263 266 273 276 271 257 231 249 278 271 328 322 149 117 114 87 101 118 217 224 224 232 228 235 237 249 259 261 273 290 313 328 336 341 331 334 326 305 315
241 250 253 260 262 270 275 277 269 264 269 266 262 270 273 269 260 261 266 180 347 8 153 141 130 140 156 244 288 303 266 255 248 249 253 263 261 278 285 296 315 329 327 332 331 333 323 311 305
Height
11011 11010 11009 11008 11006 11004 11001 10998 10996 10995 10993 10992 10991 10988 10985 10983 10981 10980 10978 10976 10975 10972 10970 10966 10962 10959 10955 10952 10949 10946 10942 10937 10931 10927 10923 10919 10918 10918 10920 10924 10928 10935 10941 10947 10950 10956 10959 10961 10965
11008 11006 11006 11005 11003 11001 11000 10998 10994 10991 10989 10988 10986 10983 10983 10980 10977 10976 10974 10973 10972 10970 10968 10964 10960 10957 10954 10952 10949 10947 10943 10937 10931 10926 10920 10917 10916 10917 10918 10922 10928 10933 10938 10944 10948 10953 10958 10961 10964
11007 11005 11004 11001 10999 10997 10995 10992 10991 10990 10988 10987 10984 10981 10980 10977 10974 10972 10971 10971 10969 10967 10965 10962 10959 10956 10954 10952 10949 10948 10945 10939 10934 10928 10921 10917 10916 10916 10917 10920 10926 10931 10936 10940 10946 10951 10955 10959 10963
11003 11001 11002 11000 10997 10994 10991 10988 10987 10986 10984 10981 10979 10978 10976 10973 10971 10968 10967 10966 10966 10964 10962 10961 10959 10956 10954 10951 10950 10948 10945 10940 10936 10930 10923 10918 10916 10917 10918 10920 10925 10929 10933 10939 10945 10950 10953 10957 10961
10997 10997 10997 10997 10996 10992 10988 10984 10980 10978 10978 10976 10974 10972 10972 10971 10968 10966 10963 10962 10962 10961 10960 10958 10958 10956 10954 10951 10950 10949 10946 10942 10937 10931 10925 10920 10918 10919 10920 10923 10926 10929 10933 10938 10942 10949 10953 10957 10961
10994 10993 10992 10992 10992 10989 10985 10981 10977 10974 10973 10971 10968 10967 10967 10964 10963 10962 10960 10957 10957 10957 10957 10956 10956 10955 10954 10952 10950 10950 10948 10944 10940 10933 10928 10922 10921 10920 10922 10926 10928 10932 10935 10938 10944 10949 10952 10955 10961
10991 10988 10987 10988 10988 10986 10983 10979 10975 10971 10969 10967 10965 10963 10962 10960 10958 10957 10955 10952 10951 10952 10953 10953 10953 10952 10951 10951 10950 10949 10948 10946 10942 10936 10932 10927 10925 10924 10925 10928 10930 10933 10937 10941 10945 10948 10952 10957 10961
10987 10983 10983 10982 10982 10980 10978 10975 10972 10968 10965 10964 10963 10961 10959 10957 10955 10953 10951 10950 10948 10948 10948 10948 10950 10950 10950 10949 10948 10947 10946 10945 10943 10939 10936 10933 10929 10929 10927 10928 10932 10935 10938 10941 10946 10949 10951 10955 10958
10983 10980 10977 10978 10978 10975 10973 10970 10967 10964 10962 10961 10959 10958 10956 10954 10950 10949 10947 10945 10944 10943 10943 10943 10945 10946 10947 10947 10946 10945 10944 10943 10943 10940 10938 10936 10934 10933 10931 10931 10932 10936 10940 10942 10945 10948 10951 10953 10957
10978 10975 10973 10972 10974 10971 10969 10967 10963 10961 10960 10957 10956 10954 10953 10950 10948 10946 10943 10941 10941 10940 10939 10939 10941 10943 10944 10945 10945 10944 10943 10943 10942 10942 10940 10938 10936 10935 10935 10935 10935 10937 10940 10942 10943 10946 10948 10951 10955
10973 10971 10967 10965 10967 10967 10965 10961 10958 10957 10956 10953 10952 10951 10948 10947 10944 10941 10939 10939 10939 10938 10937 10938 10940 10942 10943 10944 10944 10944 10944 10943 10942 10942 10942 10939 10938 10938 10936 10937 10939 10940 10941 10942 10942 10943 10946 10948 10953
10971 10966 10964 10959 10959 10960 10959 10958 10955 10955 10954 10950 10948 10947 10944 10941 10939 10937 10934 10933 10935 10936 10936 10937 10939 10941 10943 10943 10943 10943 10943 10944 10943 10943 10943 10943 10941 10939 10938 10939 10939 10941 10942 10941 10941 10941 10944 10946 10950
10965 10963 10957 10955 10953 10954 10954 10954 10952 10951 10950 10947 10945 10944 10940 10936 10933 10933 10931 10928 10931 10933 10935 10938 10940 10941 10943 10944 10943 10943 10943 10943 10943 10943 10944 10944 10942 10941 10941 10941 10941 10943 10942 10941 10941 10941 10942 10945 10948
10956 10956 10954 10950 10948 10946 10949 10949 10949 10947 10944 10944 10943 10940 10936 10931 10928 10929 10927 10926 10928 10931 10934 10935 10941 10942 10942 10943 10941 10941 10941 10941 10942 10942 10943 10943 10943 10943 10942 10942 10942 10941 10942 10941 10941 10941 10941 10943 10946
10948 10949 10949 10947 10944 10941 10941 10943 10944 10942 10939 10939 10938 10935 10931 10927 10925 10924 10924 10924 10925 10927 10926 10922 10922 10914 10931 10935 10934 10935 10939 10940 10943 10941 10940 10941 10942 10943 10943 10941 10940 10940 10941 10940 10940 10939 10939 10940 10942
10943 10940 10941 10942 10941 10937 10936 10939 10937 10936 10933 10933 10931 10929 10927 10924 10923 10921 10922 10922 10923 10925 10921 10918 10920 10920 10923 10928 10930 10934 10936 10938 10942 10940 10939 10940 10942 10942 10941 10941 10940 10939 10938 10939 10938 10936 10936 10935 10935
10935 10934 10932 10935 10935 10932 10930 10931 10930 10929 10928 10926 10925 10924 10924 10920 10919 10917 10919 10918 10919 10920 10920 10917 10917 10917 10914 10921 10922 10928 10934 10937 10938 10941 10940 10939 10941 10941 10940 10940 10940 10939 10938 10936 10934 10933 10931 10929 10929
10926 10928 10927 10930 10929 10927 10922 10924 10923 10922 10922 10921 10921 10921 10921 10917 10915 10913 10914 10913 10914 10916 10916 10910 10911 10915 10911 10918 10919 10922 10929 10933 10935 10937 10938 10938 10939 10939 10940 10938 10937 10936 10935 10934 10931 10929 10927 10924 10922
10921 10922 10922 10924 10924 10926 10922 10919 10918 10916 10917 10916 10917 10917 10917 10914 10911 10911 10911 10911 10907 10908 10911 10907 10907 10912 10906 10912 10916 10921 10926 10931 10933 10934 10933 10935 10937 10938 10936 10935 10934 10933 10932 10929 10926 10922 10919 10916 10913
10914 10918 10917 10918 10919 10922 10922 10917 10913 10912 10912 10913 10913 10913 10913 10910 10906 10906 10908 10908 10906 10904 10904 10903 10905 10907 10902 10906 10911 10918 10921 10927 10931 10932 10931 10931 10933 10934 10934 10932 10931 10930 10927 10925 10920 10917 10911 10907 10906
10907 10913 10912 10913 10916 10917 10918 10915 10912 10910 10908 10909 10908 10909 10911 10908 10904 10903 10903 10903 10902 10898 10897 10896 10899 10902 10899 10901 10907 10913 10918 10922 10925 10925 10926 10928 10929 10930 10930 10929 10927 10927 10923 10918 10914 10910 10905 10900 10900
10902 10906 10906 10906 10910 10912 10912 10911 10910 10909 10906 10904 10905 10907 10909 10906 10902 10899 10899 10899 10895 10894 10893 10892 10892 10895 10897 10895 10899 10906 10912 10916 10918 10920 10921 10923 10924 10925 10926 10926 10924 10921 10917 10913 10910 10902 10898 10896 10896
10895 10899 10900 10901 10904 10906 10907 10906 10904 10905 10904 10904 10903 10902 10905 10904 10901 10900 10897 10893 10889 10885 10884 10884 10886 10889 10894 10890 10895 10898 10904 10909 10913 10915 10918 10921 10922 10921 10921 10920 10919 10916 10912 10908 10903 10899 10895 10894 10893
10885 10891 10895 10896 10897 10900 10901 10901 10900 10901 10899 10900 10901 10901 10903 10902 10899 10898 10893 10889 10885 10883 10876 10875 10879 10881 10884 10885 10887 10890 10897 10902 10906 10910 10913 10915 10917 10917 10917 10915 10914 10911 10907 10903 10897 10893 10890 10890 10889
10881 10884 10887 10889 10891 10894 10895 10895 10895 10897 10896 10895 10895 10895 10897 10898 10896 10893 10891 10887 10882 10879 10876 10870 10871 10874 10877 10881 10881 10884 10889 10894 10899 10903 10907 10909 10911 10912 10911 10909 10908 10905 10901 10897 10892 10889 10886 10885 10885
10874 10877 10879 10881 10884 10887 10888 10890 10891 10891 10892 10891 10891 10890 10893 10895 10895 10890 10888 10887 10881 10877 10872 10868 10866 10867 10871 10875 10880 10882 10885 10888 10892 10897 10900 10902 10904 10905 10906 10905 10904 10901 10896 10892 10887 10884 10881 10880 10879
10866 10869 10872 10875 10877 10880 10882 10883 10883 10882 10885 10886 10884 10887 10889 10889 10889 10885 10884 10885 10884 10874 10871 10870 10866 10865 10867 10871 10876 10879 10883 10885 10888 10892 10895 10898 10899 10900 10900 10900 10899 10896 10892 10886 10881 10879 10878 10877 10877
10857 10861 10866 10869 10870 10873 10874 10876 10876 10877 10879 10879 10877 10877 10879 10880 10882 10880 10882 10887 10883 10876 10871 10870 10870 10867 10870 10873 10876 10879 10882 10885 10886 10888 10891 10892 10893 10894 10895 10895 10894 10891 10887 10881 10878 10875 10873 10873 10873
10850 10856 10859 10861 10863 10865 10867 10867 10869 10871 10874 10873 10872 10869 10870 10873 10878 10880 10878 10881 10879 10873 10871 10868 10870 10867 10872 10873 10876 10877 10879 10879 10881 10882 10885 10886 10886 10889 10889 10889 10889 10886 10882 10879 10876 10871 10870 10870 10869
10843 10848 10850 10853 10855 10859 10859 10859 10861 10865 10867 10866 10865 10864 10864 10867 10873 10876 10877 10877 10878 10871 10870 10868 10869 10870 10869 10874 10874 10873 10876 10877 10878 10878 10879 10881 10883 10884 10885 10885 10884 10880 10877 10875 10872 10869 10868 10868 10867